Погода в Нефтчале

Погода в Нефтчале : погода сейчас, прогноз погоды и архив. Всё, что Вы хотите узнать о погоде в Нефтчале!

Поиск расширенной информации на нашем сайте:

Полезная информация: Marina APM 200 25 недорого: насосная станция для частного дома. Станция бытового водоснабжения.

Другие новости

Новости СМИ2

Главная страница сайта

Новости сайта

03.07.2017

Напоминаем, что на нашем специализированном сайте Метеоцентр.Азия вы можете получить высокодетализированные автоматические прогнозы погоды по пунктам России, СНГ и мира в авиационном формате (включающие направление и скорость ветра, видимость, явления погоды, количество и форму облачности, нижнюю и верхнюю границу облачности).

Рекомендуем: Abc автоматика ворота сервис.

Погода в Нефтчале - сегодня

Время (UTC), дата Ветер
(°,м/с) 
Видим.   Явления Облачность Т
(°С)
Тd
(°С)
f(%) Тe
(°С)
Pmin
(гПа)
dP
(гПа)
Po
(мм)
O2
(г/м3)
Тmin Tmax R s Состояние
почвы
12 23.07.17 тихо ()   20000 м    ясно 
+33.7 +21.5 49 +56  1004.8  -1.2  756  266           
15 23.07.17 050 (СВ) 20000 м    6/0 средняя 
[Ac und]
+29.6 +22.4 65 +54  1005.5  0.7  756  269           
18 23.07.17 050 (СВ) 16-20{20}  10 км    6/0 средняя 
[Ac und]
+29 +21.9 66 +52  1006.8  1.3  757  270    +37.9       
00 24.07.17 050 (СВ) 23-25{25}  10 км    8/8 600 м 
[Sc]
+27.5 +19.3 61 +44  1007.8  0.6  758  273           
03 24.07.17 050 (СВ) 16  20000 м    6/0 средняя 
[Ac und]
+26.7 +20.8 70 +47  1009.3  1.5  759  273           
06 24.07.17 050 (СВ) 16-20{20}  20000 м    8/0 средняя 
[Ac und]
+28.3 +20.4 62 +47  1010.1  0.8  760  272           
09 24.07.17 050 (СВ) 20000 м    4/4 600 м 
[Cu med, cong]
+30.1 +21.5 60 +52  1009.4  -0.7  759  270           
12 24.07.17 050 (СВ) 20000 м    ясно 
+29.3 +19.3 55 +46  1008.4  -1  758  271           
15 24.07.17 050 (СВ) 16-20{20}  20000 м    5/0 средняя 
[Ac und]
+27.6 +18.4 57 +42  1007.5  -0.8  758  273           
18 24.07.17 050 (СВ) 10 км    ясно 
+26.4 +17.9 60 +40  1008.7  1.1  759  275    +30.8       
21 24.07.17 050 (СВ) 10 км    ясно 
+25.5 +19.3 69 +42  1008.1  -0.6  758  275           
00 25.07.17 тихо ()   10 км    ясно 
+24.2 +19.5 75 +41  1007.4  -0.7  758  276           
03 25.07.17 140 (ЮВ) 20000 м    ясно 
+23 +16.9 69 +35  1007.8  0.4  758  278           
09 25.07.17 050 (СВ) 20000 м    ясно 
+32.6 +17.5 41 +46  1005.2  -1.7  756  268           
12 25.07.17 050 (СВ) 20000 м    ясно 
+31 +20.7 54 +51  1004  -1.2  755  268           
15 25.07.17 050 (СВ) 20000 м    ясно 
+28.5 +20.8 63 +49  1004.2  0.2  755  270           
21 25.07.17 тихо ()   10 км    ясно 
+26.1 +19.8 68 +44  1005.9  0.2  756  273           
00 26.07.17 тихо ()   10 км    ясно 
+24.5 +19.9 76 +43  1005.2  -0.7  756  275           
03 26.07.17 тихо ()   20000 м    6/0 средняя 
[Ac und]
+25.5 +20.3 73 +45  1006.4  1.2  757  274           
06 26.07.17 050 (СВ) 20000 м    ясно 
+31.1 +21 55 +52  1006.3  -0.1  757  269           
09 26.07.17 180 (Ю) 20000 м    ясно 
+32.3 +20.8 51 +53  1005.7  -0.6  756  267           
12 26.07.17 140 (ЮВ) 10  20000 м    ясно 
+32.7 +17.7 41 +46  1005.5  -0.2  756  268           
15 26.07.17 050 (СВ) 20000 м    ясно 
+30.2 +17.7 47 +44  1006.2  0.7  757  271           
18 26.07.17 тихо ()   10 км    ясно 
+26.9 +18.8 61 +43  1007.3  1.1  758  274    +33.9       
21 26.07.17 тихо ()   10 км    ясно 
+24.9 +19.5 72 +42  1007.6  0.3  758  275           
Время (UTC), дата Ветер
(°,м/с) 
Видим.   Явления Облачность Т
(°С)
Тd
(°С)
f(%) Тe
(°С)
Pmin
(гПа)
dP
(гПа)
Po
(мм)
O2
(г/м3)
Тmin Tmax R s Состояние
почвы

Для получения пояснительной информации подведите курсор к названию столбца.

ПОГОДА в Нефтчале - архив

Всё, что Вы хотите узнать о погоде в Нефтчале - удобно и подробно!

Выберите нужную дату (начиная с 1 января 2015* года) и нажмите кнопку "Найти".
Будут отображены архивные сводки погоды по пункту Нефтчала, начиная с указанной даты.


Отображать данные в формате CSV (для использования в таблицах Excel)


Внимание! Наш архив погоды предназначен исключительно для личного некоммерческого использования в познавательных целях. Если Вам необходимы официальные справки о состоянии погоды (для производственных, юридических, коммерческих и т.п. целей), обращайтесь в органы Росгидромета.

*Примечание: данная дата относится к архиву по метеостанциям СССР (Россия, СНГ, Балтия).
Архив по метеостанциям Зарубежной Европы и Азии (кроме Китая) хранится 10 дней, по другим регионам земного шара (Китай, Африка, Америка, Австралия, Океания) - 1 день.

Нефтчала - район местоположения метеостанции


Название, широта, долгота, высота метеостанции:
Нефтчала 39.4°ш. 49.2°д. -24 м над ур. моря [Азербайджан]

Дополнительная информация

В oтличие oт бoльшинства пoгoдных сайтoв мы публикуем пoдрoбную метеoинфoрмацию в детальнoм прoфессиoнальнoм фoрмате.

Характеристики температуры и влажнoсти вoздуха измеряются на высoте 2 м в тени вдали oт зданий и деревьев.
Скoрoсть ветра измеряется на высoте 10 м (на урoвне рoста челoвека скoрoсть ветра ниже в 1.5-2 раза). Если метеoстанция нахoдится в гoрoде или в лесу, тo скoрoсть ветра занижена на 2-4 м/с пo сравнению с oткрытым местoм. Скoрoсть ветра над акватoриями крупных рек и oзёр, а также на вершинах хoлмoв на 2-5 м/с выше, чем в oбычных услoвиях.
Атмoсфернoе давление в разных тoчках местнoсти мoжет значительнo oтличаться oт давления на метеoстанции, в зависимoсти oт услoвий рельефа (при пoдъёме на 10 м давление пoнижается примернo на 1 мм рт.ст.).